{"data":{"norad_id":45854,"epoch":"2026-05-22T01:12:39.712896Z","epoch_age_seconds":330042,"freshness":"STALE","line1":"1 45854U 20041A   26142.05045964 -.00000093  00000+0  00000+0 0  9992","line2":"2 45854  56.6536  29.9571 0062927 204.8500 329.5146  2.00559133 43518","mean_motion":2.00559133,"eccentricity":0.0062927,"inclination_deg":56.6536,"raan_deg":29.9571,"arg_perigee_deg":204.85,"mean_anomaly_deg":329.5146,"bstar":0,"rev_number":4351,"period_min":717.99273284653,"perigee_km":20015.466765607,"apogee_km":20349.744334899,"semimajor_km":26560.742550253,"source":"CELESTRAK","updated_at":"2026-05-25T13:38:23.767013Z"}}